Vertical_Velocity
-5 -3 -2 -3 -3 -3 -5 -4 -5 -4 -3 -5 -4 -5 -0 -4 -2 -1 -2 1 2 -4 1 3 -2 5 4 1 4 3 -24 33 -6 12 9 2 -0 1 -2 -1 1 -2 2
-5 -4 -3 -3 -3 -4 -3 -5 -3 -1 -0 -6 -2 -1 -3 1 3 -1 -3 -1 -1 1 -2 -0 4 1 3 4 1 -3 0 6 -23 16 4 9 -6 3 -2 -3 4 -1 -1
-3 -4 -2 -1 -3 -3 -5 -5 -2 -3 -8 -5 -3 1 1 0 -0 2 3 -4 2 1 -4 1 2 3 1 -1 -0 49 61 14 6 5 2 6 -2 -2 1 -4 5 2 -2
-4 -3 -4 -4 -2 -1 -3 -6 -9 -7 -6 -5 -5 1 -0 0 1 0 2 -2 -1 -1 1 -1 2 3 3 1 4 20 -52 78 9 -4 11 6 5 -2 2 -0 4 -0 1
-1 -3 -5 -5 -7 -8 -5 -5 -1 -8 -4 -3 -6 -3 2 -2 2 -0 0 -1 -1 2 -2 3 2 2 5 -8 -1 14 12 4 -15 -2 21 7 1 -1 2 1 5 1 2
-5 -5 -4 -5 -6 -1 -2 -2 -6 1 -8 -11 -11 -6 -1 4 1 3 1 -4 -1 -8 1 -2 1 1 3 2 -6 -8 3 -10 -26 -13 -0 4 5 -11 1 2 3 3 -1
-4 -2 -3 -4 -4 -5 -5 -3 -5 -7 5 -1 -10 -2 -1 -3 2 -1 -0 -0 -1 -3 3 3 2 1 2 1 -6 1 0 -17 -34 61 17 18 11 8 3 3 2 5 -1
-5 -6 -9 -6 -4 -4 -3 -5 -6 -8 -4 -1 -12 -8 -17 13 1 8 2 1 -4 -1 -4 -0 4 3 -2 2 -7 -0 -10 -8 -0 -0 143 30 3 6 7 5 -0 -2 1
-7 -5 -2 -3 -3 -9 -5 -4 -4 -5 -6 5 0 -9 -10 -6 -12 10 12 3 2 -0 -3 -0 1 4 2 2 -7 -4 -13 -23 -28 7 23 7 -17 11 15 10 1 1 3
-0 -3 -3 -4 -7 -5 -2 -4 -3 -4 -3 -2 1 2 -2 -7 -10 -21 14 7 -6 -6 29 -3 2 2 0 1 2 0 -2 -9 -17 -16 11 5 121 15 66 -2 5 2 2
-0 -6 -5 -2 -3 -5 -1 -3 -1 -1 -2 -4 -2 1 1 0 -2 -15 -14 9 2 -2 -11 24 -2 -4 2 4 -1 16 -3 3 -12 -32 1 -8 14 23 34 2 7 1 3
-0 -2 -1 -2 -1 -0 -1 -1 2 0 -1 -1 -0 1 -0 -1 3 -6 -10 -3 -2 3 5 2 6 2 9 2 4 16 34 9 -11 1 -11 19 -8 1 10 -2 -2 2 -1
-1 -1 -2 0 -1 -1 -1 -1 0 1 -0 -1 2 2 0 -0 0 -2 -5 -1 -7 1 -6 1 8 6 -3 -3 2 18 1 23 5 0 -5 19 11 37 16 2 -0 3 2
-3 -1 -1 0 1 -1 -1 -2 -0 0 -1 1 3 2 -0 -0 2 -1 -2 -5 -3 -2 -2 -8 -1 -0 4 5 10 4 -10 1 14 5 5 12 11 7 -14 15 11 9 7
-2 -2 -3 -2 -1 0 -1 -1 0 2 -1 3 2 3 0 -1 1 0 0 -1 -5 -1 0 -6 -2 9 1 5 -12 15 18 7 12 2 9 -1 4 4 15 27 8 25 10
-2 0 -3 -2 -1 -1 -2 -2 -0 2 -1 5 2 4 1 -1 1 0 0 -0 -2 -3 -10 0 5 -1 12 1 3 10 -3 11 10 5 -1 -6 -1 -3 -5 -5 26 46 2
-3 -3 -2 -2 -1 -1 -0 -2 -1 -1 0 2 3 3 2 0 1 1 0 2 1 0 -6 3 -1 1 -2 7 6 16 17 -7 8 11 -1 5 -8 4 -12 3 25 -9 -9
1 -3 -2 0 -2 0 -1 -0 -2 -0 -1 1 3 2 2 1 1 1 0 1 -0 1 -3 -2 1 -1 1 -5 -5 3 17 9 18 7 3 15 13 -10 3 -4 -11 -2 -23
-1 1 -1 -1 -2 -0 -1 1 -2 -1 0 -0 2 1 4 1 2 1 0 1 -1 1 -1 -3 1 2 -2 0 -8 -7 -0 10 -6 12 -4 -6 13 1 -5 -1 -6 29 8
-4 -3 2 -0 -2 -0 -1 -0 -1 -2 -1 -0 1 1 3 2 1 2 1 2 1 0 -1 -3 1 2 1 -8 -13 3 -1 16 8 -1 4 -7 -17 -2 13 12 -8 1 -4
-0 -1 -4 1 1 -2 -1 -0 -1 -0 1 1 0 1 1 2 1 1 1 2 1 1 0 1 1 -0 2 -2 3 26 -1 15 6 3 5 4 -4 -2 -10 5 -9 -20 -10
-3 -3 0 -5 1 -1 -1 1 -3 -3 -0 -1 1 2 1 1 1 1 0 1 1 -1 -1 -0 4 -0 -2 -1 -2 1 6 4 -8 -6 9 6 0 -6 0 -1 7 -18 -3
-3 -4 -1 -3 0 -3 -1 1 -1 -2 -1 -0 -0 2 2 1 1 1 1 0 0 -1 -3 -2 -0 5 1 -0 -10 5 6 -0 4 3 -7 -6 -4 9 3 4 -6 1 -3
-5 -4 -4 -2 2 -3 -1 -1 -2 -1 -0 1 -0 -1 0 1 0 -0 1 0 -0 0 -0 -1 -0 2 2 -1 -1 -2 -1 2 2 6 2 2 -1 0 1 -1 -6 -3 3
-1 -3 -4 -2 -5 -2 1 -1 -3 -1 0 0 -0 -0 -0 2 0 -2 0 0 -0 1 0 -2 -2 0 1 2 1 0 6 -7 -2 5 7 0 3 0 -4 0 -0 -2 3
-1 -4 -0 -2 -5 -3 -2 -1 -3 -1 0 -1 -1 -1 -1 -0 0 0 -1 1 0 3 -1 -1 -2 0 0 2 -2 -0 0 -3 10 4 11 2 3 0 -3 0 -5 -6 -4
Height
3101 3096 3092 3086 3081 3077 3072 3069 3065 3061 3058 3056 3053 3049 3047 3046 3044 3043 3044 3046 3047 3049 3052 3056 3060 3064 3068 3071 3074 3076 3077 3059 3080 3084 3089 3092 3098 3102 3106 3108 3111 3114 3117
3088 3085 3080 3075 3070 3065 3060 3054 3050 3046 3043 3040 3038 3034 3031 3030 3029 3029 3028 3030 3033 3035 3037 3041 3046 3050 3055 3058 3062 3065 3066 3067 3071 3075 3079 3085 3090 3093 3098 3100 3104 3107 3110
3077 3072 3068 3062 3057 3052 3047 3042 3038 3033 3029 3025 3021 3019 3016 3014 3014 3013 3014 3015 3018 3021 3024 3026 3031 3035 3040 3044 3047 3047 3041 3053 3060 3068 3072 3076 3079 3085 3089 3093 3097 3100 3103
3069 3063 3057 3052 3046 3041 3036 3030 3025 3020 3015 3010 3007 3005 3002 3000 3000 3001 3000 3001 3004 3006 3010 3014 3016 3020 3024 3028 3032 3030 3020 3029 3045 3056 3061 3066 3072 3076 3081 3084 3089 3092 3096
3060 3053 3047 3042 3036 3031 3026 3019 3014 3007 3002 2998 2992 2990 2988 2986 2987 2987 2989 2990 2992 2994 2997 3002 3004 3007 3010 3012 3016 3016 3014 3029 3023 3026 3046 3055 3061 3066 3072 3075 3080 3084 3088
3052 3046 3040 3034 3026 3019 3014 3008 3003 2998 2992 2985 2981 2978 2975 2975 2974 2974 2976 2977 2980 2981 2986 2990 2993 2995 2998 3000 3002 3005 3009 3013 3019 3024 3032 3042 3048 3053 3062 3066 3071 3076 3081
3043 3036 3029 3022 3015 3010 3004 2998 2992 2986 2982 2976 2969 2968 2965 2963 2963 2963 2964 2966 2968 2970 2975 2978 2982 2985 2987 2989 2993 2997 3001 3003 3014 3006 3022 3029 3038 3044 3050 3057 3062 3066 3072
3035 3027 3020 3014 3008 3001 2996 2989 2983 2978 2972 2966 2959 2955 2952 2955 2954 2955 2955 2955 2957 2959 2962 2967 2972 2974 2977 2979 2983 2985 2989 2999 2993 2999 3005 3016 3026 3034 3041 3046 3053 3058 3064
3027 3020 3014 3007 3001 2994 2988 2982 2975 2969 2963 2958 2953 2948 2943 2941 2942 2946 2948 2946 2947 2949 2950 2955 2961 2965 2968 2970 2973 2974 2974 2976 2988 2983 2993 2996 3007 3020 3030 3037 3043 3050 3057
3019 3012 3006 2999 2993 2986 2980 2973 2967 2960 2954 2950 2946 2944 2939 2934 2931 2932 2938 2939 2937 2939 2937 2945 2949 2954 2958 2963 2965 2966 2967 2968 2978 2981 2986 2991 2983 3005 3014 3025 3034 3041 3048
3010 3004 2997 2990 2983 2977 2971 2964 2959 2952 2947 2942 2937 2934 2933 2931 2928 2924 2924 2930 2931 2931 2926 2932 2939 2947 2950 2954 2955 2958 2960 2963 2971 2977 2976 2981 2986 2990 3003 3012 3024 3033 3040
3002 2995 2987 2981 2974 2967 2961 2956 2950 2944 2938 2934 2930 2926 2923 2923 2921 2918 2917 2919 2922 2925 2921 2925 2930 2938 2942 2946 2950 2947 2954 2957 2963 2970 2971 2975 2981 2987 2994 3005 3016 3024 3032
2992 2985 2978 2971 2964 2958 2951 2945 2940 2934 2929 2925 2922 2919 2916 2914 2912 2911 2910 2911 2914 2917 2916 2918 2923 2930 2936 2938 2941 2939 2942 2948 2956 2961 2967 2969 2975 2982 2989 2997 3008 3017 3025
2981 2975 2968 2961 2954 2947 2940 2934 2929 2924 2919 2916 2913 2911 2908 2908 2905 2904 2904 2905 2907 2910 2911 2912 2917 2923 2927 2933 2936 2935 2939 2942 2949 2954 2960 2962 2968 2975 2982 2991 3000 3009 3018
2971 2965 2957 2949 2942 2935 2929 2923 2918 2914 2909 2906 2904 2902 2900 2900 2898 2898 2898 2899 2900 2903 2907 2906 2912 2916 2923 2928 2930 2931 2935 2936 2942 2949 2953 2956 2961 2966 2974 2983 2991 3000 3011
2962 2954 2945 2937 2930 2924 2918 2912 2907 2903 2898 2896 2894 2892 2893 2892 2891 2891 2892 2893 2895 2897 2901 2903 2905 2911 2915 2922 2927 2928 2931 2934 2939 2943 2947 2953 2959 2963 2969 2976 2983 2990 3001
2950 2942 2933 2925 2918 2911 2906 2901 2896 2892 2888 2886 2885 2883 2884 2883 2884 2885 2885 2887 2889 2891 2894 2901 2902 2906 2911 2915 2920 2921 2924 2934 2934 2939 2947 2951 2955 2961 2966 2969 2974 2985 2993
2939 2929 2921 2914 2907 2900 2895 2889 2885 2882 2879 2877 2875 2874 2876 2875 2877 2878 2879 2880 2883 2885 2888 2895 2899 2902 2907 2913 2916 2922 2928 2929 2932 2937 2945 2947 2952 2957 2963 2969 2975 2984 2992
2929 2920 2911 2903 2895 2889 2883 2879 2874 2872 2869 2867 2866 2865 2867 2868 2870 2871 2872 2874 2877 2880 2883 2889 2895 2899 2903 2910 2915 2918 2921 2927 2931 2934 2939 2945 2947 2955 2960 2970 2975 2982 2986
2918 2909 2900 2892 2884 2878 2873 2868 2865 2862 2860 2859 2858 2857 2858 2861 2863 2865 2866 2869 2871 2874 2878 2884 2891 2895 2900 2906 2913 2918 2924 2924 2929 2931 2936 2940 2945 2952 2958 2966 2976 2978 2985
2909 2899 2891 2884 2875 2868 2863 2858 2855 2853 2852 2851 2851 2850 2851 2853 2857 2859 2861 2863 2865 2869 2873 2879 2885 2890 2896 2900 2907 2911 2916 2919 2925 2929 2936 2940 2946 2951 2958 2963 2971 2977 2987
2902 2893 2884 2875 2867 2861 2855 2850 2847 2845 2844 2843 2844 2844 2845 2847 2850 2853 2855 2857 2860 2864 2868 2872 2879 2885 2890 2896 2902 2907 2913 2917 2922 2930 2935 2939 2944 2952 2956 2962 2967 2978 2987
2896 2888 2879 2870 2863 2855 2849 2845 2842 2839 2838 2837 2838 2838 2840 2843 2845 2847 2850 2852 2855 2858 2863 2868 2872 2878 2886 2893 2898 2903 2909 2916 2921 2926 2931 2940 2945 2949 2954 2958 2967 2973 2979
2891 2884 2876 2867 2860 2852 2846 2842 2838 2835 2834 2833 2833 2834 2836 2838 2840 2842 2844 2847 2850 2853 2859 2864 2868 2874 2881 2887 2894 2901 2907 2913 2918 2924 2931 2936 2942 2947 2951 2954 2961 2967 2974
2888 2881 2872 2864 2857 2851 2846 2842 2837 2834 2833 2832 2832 2832 2833 2835 2836 2838 2840 2843 2846 2850 2854 2859 2864 2869 2876 2883 2890 2897 2904 2910 2915 2921 2926 2932 2937 2942 2949 2953 2958 2962 2969
2884 2877 2870 2862 2855 2849 2844 2840 2836 2834 2832 2831 2830 2830 2831 2831 2833 2834 2836 2838 2842 2846 2849 2854 2859 2865 2871 2877 2884 2893 2900 2905 2912 2918 2923 2929 2933 2939 2943 2949 2954 2960 2967